Regional Weather Roundup
Issued by NWS Memphis, TN

Home | Current Version | Previous Version | Text Only | Print | Product List | Glossary On
Versions: 1 2 3 4 5 6 7 8 9 10 11 12 13 14 15 16 17 18 19 20 21 22 23 24 25 26 27 28 29 30 31 32 33 34 35 36 37 38 39 40 41 42 43 44 45 46 47 48 49 50
000
ASUS44 KMEG 302110
RWRMEG
MEMPHIS CWA HOURLY WEATHER ROUNDUP
NATIONAL WEATHER SERVICE MEMPHIS TN
400 PM CDT WED JUL 30 2014

...WEST TENNESSEE...

CITY           SKY/WX    TMP DP  RH WIND       PRES   REMARKS
MEMPHIS INTL   MOSUNNY   83  57  41 W5        30.08F
NWS MEMPHIS      N/A     83 N/A N/A MISG        N/A
JACKSON        MOSUNNY   80  59  48 SW7       30.09F
LEXINGTON      MOSUNNY   81  57  44 NW6       30.09S
SAVANNAH       MOSUNNY   82  54  38 CALM      30.09F
DYERSBURG      CLOUDY    79  55  44 W6        30.10S
UNION CITY     MOSUNNY   79  57  47 W3        30.09S
PARIS          PTSUNNY   79  55  43 CALM      30.10F


...EASTERN ARKANSAS...

CITY           SKY/WX    TMP DP  RH WIND       PRES   REMARKS
JONESBORO      CLOUDY    78  61  55 W7        30.08F
WEST MEMPHIS   PTSUNNY   82  60  47 CALM      30.07F
BATESVILLE     CLOUDY    68  66  94 NE3       30.11S
NEWPORT        LGT RAIN  76  65  68 NW5       30.11R
WALNUT RIDGE   CLOUDY    77  61  57 SW6       30.08F
BLYTHEVILLE    CLOUDY    80  59  48 VRB3      30.09F
SEARCY         CLOUDY    78  67  68 NW3       30.11S
STUTTGART      CLOUDY    81  63  54 W7        30.10S
PINE BLUFF     CLOUDY    78  64  61 W7        30.10S
MONTICELLO     CLOUDY    80  61  52 CALM      30.08F


...NORTH MISSISSIPPI...

CITY           SKY/WX    TMP DP  RH WIND       PRES   REMARKS
TUPELO         SUNNY     82  55  39 NE6       30.07F
OLIVE BRANCH   PTSUNNY   81  59  47 E5        30.09F
CLARKSDALE     MOSUNNY   81  59  47 CALM      30.09S
CORINTH        MOSUNNY   81  57  44 N7        30.08F
GRENADA        SUNNY     81  55  41 E5        30.07F
GREENWOOD      SUNNY     82  60  47 N3        30.07F
COLUMBUS       MOSUNNY   83  57  41 VRB7      30.06F
STARKVILLE     FAIR      81  55  41 NW5       30.07S
GOLDEN TRIANGL MOSUNNY   84  57  39 N9        30.07F


...SOUTHEAST MISSOURI...

CITY           SKY/WX    TMP DP  RH WIND       PRES   REMARKS
WEST PLAINS    CLOUDY    70  65  84 SW6       30.11F
POPLAR BLUFF   CLOUDY    78  61  55 S6        30.07F
CAPE GIRARDEAU CLOUDY    76  63  64 CALM      30.09F


...NORTHWEST ALABAMA...

CITY           SKY/WX    TMP DP  RH WIND       PRES   REMARKS
MUSCLE SHOALS  MOSUNNY   83  55  38 VRB3      30.08F


...MIDDLE TENNESSEE...

CITY           SKY/WX    TMP DP  RH WIND       PRES   REMARKS
NASHVILLE      CLOUDY    82  55  39 N8        30.09F
CLARKSVILLE    PTSUNNY   81  53  37 W6        30.08F
DICKSON        PTSUNNY   79  52  38 NW6       30.10F
COLUMBIA       SUNNY     81  57  44 N5        30.08S
LEWISBURG      PTSUNNY   81  56  42 CALM      30.08F


...WESTERN KENTUCKY...

CITY           SKY/WX    TMP DP  RH WIND       PRES   REMARKS
PADUCAH        CLOUDY    79  57  46 SW5       30.09S
FORT CAMPBELL  PTSUNNY   81  52  36 W6        30.09S


...CENTRAL ARKANSAS...

CITY           SKY/WX    TMP DP  RH WIND       PRES   REMARKS
LITTLE ROCK    LGT RAIN  75  62  64 W8        30.11S


SKY/WX REPORTED AS FAIR MEANS FEW OR NO CLOUDS BELOW
12 THOUSAND FEET.



USA.gov is the U.S. government's official web portal to all federal, state and local government web resources and services.